| time (UTC) | temp F | wind direction | speed MPH | gust MPH | rain 1hr in | rain 24hr in | rain mn in | humidity % | barometer mb |
| 20260508181227 | 76 | 225 | 10.0 | 13.0 | 0.00 | 0.00 | 0.00 | 42 | 1010.9 |
| 20260508180723 | 76 | 172 | 10.0 | 13.0 | 0.00 | 0.00 | 0.00 | 43 | 1011.0 |
| 20260508180220 | 76 | 271 | 6.0 | 9.0 | 0.00 | 0.00 | 0.00 | 44 | 1011.1 |
| 20260508175717 | 77 | 169 | 7.0 | 9.0 | 0.00 | 0.00 | 0.00 | 43 | 1011.0 |
| 20260508175213 | 76 | 204 | 7.0 | 8.0 | 0.00 | 0.00 | 0.00 | 43 | 1011.0 |
| 20260508174712 | 75 | 359 | 3.0 | 4.0 | 0.00 | 0.00 | 0.00 | 44 | 1011.0 |
| 20260508174208 | 75 | 212 | 4.0 | 6.0 | 0.00 | 0.00 | 0.00 | 44 | 1011.0 |
| 20260508173704 | 75 | 207 | 6.0 | 9.0 | 0.00 | 0.00 | 0.00 | 45 | 1010.9 |
| 20260508173200 | 75 | 181 | 8.0 | 9.0 | 0.00 | 0.00 | 0.00 | 44 | 1011.2 |
| 20260508172658 | 74 | 197 | 6.0 | 7.0 | 0.00 | 0.00 | 0.00 | 45 | 1011.3 |
| 20260508172155 | 74 | 204 | 5.0 | 6.0 | 0.00 | 0.00 | 0.00 | 46 | 1011.2 |
| 20260508171651 | 73 | 102 | 5.0 | 6.0 | 0.00 | 0.00 | 0.00 | 48 | 1011.3 |
| 20260508171147 | 74 | 208 | 10.0 | 11.0 | 0.00 | 0.00 | 0.00 | 46 | 1011.4 |
| 20260508170644 | 73 | 30 | 4.0 | 7.0 | 0.00 | 0.00 | 0.00 | 49 | 1011.7 |
| 20260508170142 | 72 | 167 | 2.0 | 4.0 | 0.00 | 0.00 | 0.00 | 50 | 1011.6 |
| 20260508165639 | 72 | 179 | 8.0 | 11.0 | 0.00 | 0.00 | 0.00 | 49 | 1011.9 |
| 20260508165136 | 72 | 193 | 7.0 | 9.0 | 0.00 | 0.00 | 0.00 | 50 | 1011.9 |
| 20260508164632 | 72 | 358 | 2.0 | 4.0 | 0.00 | 0.00 | 0.00 | 51 | 1012.0 |
| 20260508164129 | 72 | 219 | 5.0 | 10.0 | 0.00 | 0.00 | 0.00 | 52 | 1012.1 |
| 20260508163627 | 72 | 101 | 3.0 | 4.0 | 0.00 | 0.00 | 0.00 | 51 | 1012.1 |
| 20260508163124 | 71 | 196 | 4.0 | 4.0 | 0.00 | 0.00 | 0.00 | 54 | 1012.1 |
| 20260508162620 | 71 | 223 | 6.0 | 7.0 | 0.00 | 0.00 | 0.00 | 52 | 1012.3 |
| 20260508162118 | 71 | 146 | 7.0 | 9.0 | 0.00 | 0.00 | 0.00 | 54 | 1012.3 |
| 20260508161614 | 70 | 189 | 6.0 | 9.0 | 0.00 | 0.00 | 0.00 | 55 | 1012.7 |
| 20260508161112 | 70 | 181 | 10.0 | 14.0 | 0.00 | 0.00 | 0.00 | 54 | 1012.6 |
| 20260508160610 | 70 | 221 | 8.0 | 15.0 | 0.00 | 0.00 | 0.00 | 55 | 1012.5 |
| 20260508160107 | 69 | 174 | 8.0 | 16.0 | 0.00 | 0.00 | 0.00 | 56 | 1012.7 |
| 20260508155604 | 69 | 208 | 5.0 | 8.0 | 0.00 | 0.00 | 0.00 | 57 | 1012.8 |
| 20260508155101 | 69 | 210 | 6.0 | 8.0 | 0.00 | 0.00 | 0.00 | 57 | 1012.8 |
| 20260508154558 | 69 | 285 | 5.0 | 7.0 | 0.00 | 0.00 | 0.00 | 58 | 1013.1 |
| 20260508154055 | 68 | 203 | 3.0 | 4.0 | 0.00 | 0.00 | 0.00 | 60 | 1013.1 |
| 20260508153551 | 68 | 136 | 5.0 | 7.0 | 0.00 | 0.00 | 0.00 | 59 | 1013.1 |
| 20260508153047 | 67 | 113 | 6.0 | 8.0 | 0.00 | 0.00 | 0.00 | 61 | 1013.1 |
| 20260508152545 | 68 | 194 | 9.0 | 11.0 | 0.00 | 0.00 | 0.00 | 59 | 1013.2 |
| 20260508152040 | 67 | 184 | 3.0 | 4.0 | 0.00 | 0.00 | 0.00 | 61 | 1013.3 |
| 20260508151537 | 67 | 136 | 8.0 | 14.0 | 0.00 | 0.00 | 0.00 | 61 | 1013.3 |
| 20260508151034 | 67 | 126 | 6.0 | 9.0 | 0.00 | 0.00 | 0.00 | 59 | 1013.4 |
| 20260508150531 | 67 | 219 | 7.0 | 9.0 | 0.00 | 0.00 | 0.00 | 60 | 1013.3 |
| 20260508150027 | 67 | 199 | 6.0 | 7.0 | 0.00 | 0.00 | 0.00 | 60 | 1013.4 |
| 20260508145524 | 66 | 223 | 7.0 | 10.0 | 0.00 | 0.00 | 0.00 | 60 | 1013.5 |
| 20260508145020 | 66 | 210 | 8.0 | 10.0 | 0.00 | 0.00 | 0.00 | 61 | 1013.3 |
| 20260508144518 | 66 | 236 | 3.0 | 6.0 | 0.00 | 0.00 | 0.00 | 63 | 1013.3 |
| 20260508144015 | 65 | 208 | 5.0 | 7.0 | 0.00 | 0.00 | 0.00 | 63 | 1013.3 |
| 20260508143513 | 65 | 215 | 4.0 | 7.0 | 0.00 | 0.00 | 0.00 | 64 | 1013.3 |
| 20260508143009 | 65 | 142 | 7.0 | 11.0 | 0.00 | 0.00 | 0.00 | 63 | 1013.3 |
| 20260508142506 | 65 | 195 | 4.0 | 4.0 | 0.00 | 0.00 | 0.00 | 64 | 1013.5 |
| 20260508142003 | 64 | 2 | 4.0 | 7.0 | 0.00 | 0.00 | 0.00 | 65 | 1013.7 |
| 20260508141459 | 64 | 185 | 2.0 | 3.0 | 0.00 | 0.00 | 0.00 | 66 | 1013.8 |
| 20260508140957 | 64 | 190 | 3.0 | 4.0 | 0.00 | 0.00 | 0.00 | 66 | 1013.8 |
| 20260508140454 | 63 | 161 | 3.0 | 4.0 | 0.00 | 0.00 | 0.00 | 67 | 1013.7 |
| 20260508135949 | 62 | 253 | 4.0 | 6.0 | 0.00 | 0.00 | 0.00 | 68 | 1014.0 |
| 20260508135446 | 62 | 208 | 9.0 | 14.0 | 0.00 | 0.00 | 0.00 | 68 | 1014.2 |
| 20260508134942 | 62 | 245 | 6.0 | 8.0 | 0.00 | 0.00 | 0.00 | 69 | 1013.9 |
| 20260508134439 | 61 | 158 | 4.0 | 4.0 | 0.00 | 0.00 | 0.00 | 69 | 1014.1 |
| 20260508133936 | 61 | 273 | 6.0 | 10.0 | 0.00 | 0.00 | 0.00 | 69 | 1014.0 |
| 20260508133434 | 60 | 235 | 6.0 | 9.0 | 0.00 | 0.00 | 0.00 | 69 | 1014.1 |
| 20260508132930 | 60 | 220 | 8.0 | 9.0 | 0.00 | 0.00 | 0.00 | 69 | 1014.2 |
| 20260508132428 | 60 | 175 | 4.0 | 8.0 | 0.00 | 0.00 | 0.00 | 69 | 1014.1 |
| 20260508131925 | 60 | 111 | 8.0 | 10.0 | 0.00 | 0.00 | 0.00 | 69 | 1014.0 |
| 20260508131420 | 60 | 195 | 5.0 | 9.0 | 0.00 | 0.00 | 0.00 | 69 | 1014.1 |
| 20260508130917 | 59 | 42 | 4.0 | 7.0 | 0.00 | 0.00 | 0.00 | 70 | 1014.0 |
| 20260508130414 | 59 | 190 | 5.0 | 7.0 | 0.00 | 0.00 | 0.00 | 69 | 1013.8 |
| 20260508125910 | 59 | 189 | 3.0 | 4.0 | 0.00 | 0.00 | 0.00 | 69 | 1013.7 |
| 20260508125406 | 59 | 201 | 8.0 | 10.0 | 0.00 | 0.00 | 0.00 | 69 | 1013.9 |
| 20260508124904 | 59 | 180 | 8.0 | 9.0 | 0.00 | 0.00 | 0.00 | 69 | 1014.0 |
| 20260508124401 | 58 | 211 | 4.0 | 6.0 | 0.00 | 0.00 | 0.00 | 69 | 1013.8 |
| 20260508123859 | 58 | 197 | 3.0 | 4.0 | 0.00 | 0.00 | 0.00 | 69 | 1013.8 |
| 20260508123357 | 58 | 202 | 2.0 | 3.0 | 0.00 | 0.00 | 0.00 | 70 | 1013.7 |
| 20260508122853 | 57 | 192 | 4.0 | 6.0 | 0.00 | 0.00 | 0.00 | 70 | 1013.5 |
| 20260508122350 | 57 | 111 | 5.0 | 7.0 | 0.00 | 0.00 | 0.00 | 69 | 1013.4 |
| 20260508121848 | 57 | 201 | 10.0 | 14.0 | 0.00 | 0.00 | 0.00 | 69 | 1013.6 |
| 20260508121346 | 57 | 179 | 3.0 | 6.0 | 0.00 | 0.00 | 0.00 | 69 | 1013.4 |
| 20260508120843 | 57 | 168 | 1.0 | 2.0 | 0.00 | 0.00 | 0.00 | 68 | 1013.6 |
| 20260508120341 | 57 | 179 | 11.0 | 13.0 | 0.00 | 0.00 | 0.00 | 68 | 1013.7 |
| 20260508115838 | 57 | 204 | 6.0 | 8.0 | 0.00 | 0.00 | 0.00 | 67 | 1013.4 |
| 20260508115335 | 57 | 182 | 4.0 | 8.0 | 0.00 | 0.00 | 0.00 | 66 | 1013.5 |
| 20260508114832 | 57 | 172 | 6.0 | 8.0 | 0.00 | 0.00 | 0.00 | 66 | 1013.5 |
| 20260508114329 | 57 | 206 | 7.0 | 10.0 | 0.00 | 0.00 | 0.00 | 65 | 1013.1 |
| 20260508113826 | 57 | 202 | 4.0 | 6.0 | 0.00 | 0.00 | 0.00 | 64 | 1013.0 |
| 20260508113324 | 57 | 195 | 6.0 | 7.0 | 0.00 | 0.00 | 0.00 | 64 | 1013.0 |
| 20260508112820 | 57 | 93 | 5.0 | 6.0 | 0.00 | 0.00 | 0.00 | 63 | 1013.0 |
| 20260508112317 | 57 | 208 | 4.0 | 4.0 | 0.00 | 0.00 | 0.00 | 63 | 1012.7 |
| 20260508111813 | 57 | 186 | 5.0 | 8.0 | 0.00 | 0.00 | 0.00 | 63 | 1012.7 |
| 20260508111311 | 57 | 152 | 6.0 | 8.0 | 0.00 | 0.00 | 0.00 | 63 | 1012.8 |
| 20260508110808 | 57 | 192 | 7.0 | 9.0 | 0.00 | 0.00 | 0.00 | 63 | 1012.8 |
| 20260508110306 | 57 | 173 | 7.0 | 9.0 | 0.00 | 0.00 | 0.00 | 64 | 1012.7 |
| 20260508105805 | 57 | 178 | 5.0 | 7.0 | 0.00 | 0.00 | 0.00 | 64 | 1012.6 |
| 20260508105305 | 57 | 188 | 6.0 | 7.0 | 0.00 | 0.00 | 0.00 | 64 | 1012.6 |
| 20260508104759 | 57 | 161 | 6.0 | 7.0 | 0.00 | 0.00 | 0.00 | 64 | 1012.7 |
| 20260508104256 | 57 | 178 | 5.0 | 7.0 | 0.00 | 0.00 | 0.00 | 64 | 1012.5 |
| 20260508103753 | 57 | 193 | 6.0 | 7.0 | 0.00 | 0.00 | 0.00 | 63 | 1012.7 |
| 20260508103250 | 57 | 165 | 4.0 | 6.0 | 0.00 | 0.00 | 0.00 | 63 | 1012.6 |
| 20260508102747 | 57 | 70 | 6.0 | 7.0 | 0.00 | 0.00 | 0.00 | 63 | 1012.6 |
| 20260508102246 | 57 | 194 | 2.0 | 3.0 | 0.00 | 0.00 | 0.00 | 62 | 1012.6 |
| 20260508101742 | 57 | 207 | 4.0 | 6.0 | 0.00 | 0.00 | 0.00 | 62 | 1012.6 |
| 20260508101240 | 57 | 189 | 6.0 | 8.0 | 0.00 | 0.00 | 0.00 | 62 | 1012.6 |
| 20260508100738 | 58 | 175 | 6.0 | 8.0 | 0.00 | 0.00 | 0.00 | 61 | 1012.5 |
| 20260508100235 | 57 | 182 | 8.0 | 10.0 | 0.00 | 0.00 | 0.00 | 61 | 1012.5 |
| 20260508095731 | 57 | 150 | 4.0 | 4.0 | 0.00 | 0.00 | 0.00 | 61 | 1012.7 |
| 20260508095229 | 57 | 112 | 2.0 | 2.0 | 0.00 | 0.00 | 0.00 | 61 | 1012.7 |
| 20260508094725 | 58 | 154 | 3.0 | 4.0 | 0.00 | 0.00 | 0.00 | 61 | 1012.7 |
| 20260508094222 | 58 | 239 | 5.0 | 7.0 | 0.00 | 0.00 | 0.00 | 61 | 1012.6 |
| 20260508093720 | 58 | 213 | 5.0 | 7.0 | 0.00 | 0.00 | 0.00 | 60 | 1012.8 |
| 20260508093217 | 58 | 158 | 2.0 | 3.0 | 0.00 | 0.00 | 0.00 | 60 | 1012.7 |
| 20260508092714 | 58 | 140 | 2.0 | 3.0 | 0.00 | 0.00 | 0.00 | 60 | 1012.6 |
| 20260508092212 | 58 | 213 | 4.0 | 6.0 | 0.00 | 0.00 | 0.00 | 60 | 1012.6 |
| 20260508091710 | 58 | 231 | 4.0 | 6.0 | 0.00 | 0.00 | 0.00 | 60 | 1012.7 |
| 20260508091207 | 58 | 151 | 3.0 | 4.0 | 0.00 | 0.00 | 0.00 | 60 | 1012.5 |
| 20260508090704 | 58 | 184 | 6.0 | 8.0 | 0.00 | 0.00 | 0.00 | 60 | 1012.5 |
| 20260508090202 | 58 | 163 | 4.0 | 4.0 | 0.00 | 0.00 | 0.00 | 60 | 1012.6 |
| 20260508085657 | 58 | 150 | 4.0 | 4.0 | 0.00 | 0.00 | 0.00 | 60 | 1012.5 |
| 20260508085155 | 58 | 211 | 6.0 | 8.0 | 0.00 | 0.00 | 0.00 | 59 | 1012.6 |
| 20260508084651 | 58 | 142 | 2.0 | 3.0 | 0.00 | 0.00 | 0.00 | 59 | 1012.8 |
| 20260508084148 | 58 | 222 | 3.0 | 3.0 | 0.00 | 0.00 | 0.00 | 59 | 1012.8 |
| 20260508083646 | 58 | 190 | 6.0 | 9.0 | 0.00 | 0.00 | 0.00 | 59 | 1012.7 |
| 20260508083143 | 58 | 166 | 2.0 | 2.0 | 0.00 | 0.00 | 0.00 | 59 | 1012.7 |
| 20260508082638 | 58 | 180 | 2.0 | 3.0 | 0.00 | 0.00 | 0.00 | 60 | 1012.9 |
| 20260508082136 | 58 | 187 | 6.0 | 7.0 | 0.00 | 0.00 | 0.00 | 60 | 1013.0 |
| 20260508081633 | 58 | 184 | 3.0 | 3.0 | 0.00 | 0.00 | 0.00 | 60 | 1012.9 |
| 20260508081129 | 58 | 216 | 4.0 | 4.0 | 0.00 | 0.00 | 0.00 | 60 | 1013.0 |
| 20260508080627 | 58 | 181 | 6.0 | 8.0 | 0.00 | 0.00 | 0.00 | 60 | 1013.1 |
| 20260508080125 | 57 | 236 | 4.0 | 4.0 | 0.00 | 0.00 | 0.00 | 60 | 1013.1 |
| 20260508075621 | 57 | 138 | 3.0 | 4.0 | 0.00 | 0.00 | 0.00 | 61 | 1013.3 |
| 20260508075118 | 57 | 167 | 4.0 | 7.0 | 0.00 | 0.00 | 0.00 | 61 | 1013.1 |
| 20260508074616 | 57 | 191 | 6.0 | 9.0 | 0.00 | 0.00 | 0.00 | 61 | 1013.1 |
| 20260508074113 | 57 | 216 | 6.0 | 7.0 | 0.00 | 0.00 | 0.00 | 61 | 1013.2 |
| 20260508073610 | 57 | 200 | 4.0 | 4.0 | 0.00 | 0.00 | 0.00 | 61 | 1013.2 |
| 20260508073108 | 57 | 126 | 3.0 | 4.0 | 0.00 | 0.00 | 0.00 | 61 | 1013.3 |
| 20260508072603 | 57 | 188 | 5.0 | 7.0 | 0.00 | 0.00 | 0.00 | 61 | 1013.3 |
| 20260508072100 | 57 | 84 | 3.0 | 4.0 | 0.00 | 0.00 | 0.00 | 61 | 1013.5 |
| 20260508071558 | 57 | 162 | 4.0 | 4.0 | 0.00 | 0.00 | 0.00 | 61 | 1013.5 |
| 20260508071056 | 57 | 214 | 3.0 | 6.0 | 0.00 | 0.00 | 0.00 | 61 | 1013.5 |
| 20260508070553 | 57 | 195 | 4.0 | 4.0 | 0.00 | 0.00 | 0.00 | 61 | 1013.4 |
| 20260508070052 | 57 | 191 | 3.0 | 3.0 | 0.00 | 0.00 | 0.00 | 61 | 1013.5 |
| 20260508065549 | 57 | 191 | 2.0 | 2.0 | 0.00 | 0.00 | 0.00 | 62 | 1013.5 |
| 20260508065047 | 57 | 117 | 2.0 | 2.0 | 0.00 | 0.00 | 0.00 | 62 | 1013.7 |
| 20260508064544 | 57 | 131 | 3.0 | 4.0 | 0.00 | 0.00 | 0.00 | 62 | 1013.6 |
| 20260508064042 | 57 | 127 | 1.0 | 3.0 | 0.00 | 0.00 | 0.00 | 62 | 1013.7 |
| 20260508063539 | 57 | 136 | 6.0 | 8.0 | 0.00 | 0.00 | 0.00 | 63 | 1013.7 |
| 20260508063037 | 57 | 87 | 2.0 | 3.0 | 0.00 | 0.00 | 0.00 | 63 | 1013.6 |
| 20260508062534 | 57 | 153 | 4.0 | 4.0 | 0.00 | 0.00 | 0.00 | 63 | 1013.8 |
| 20260508062031 | 57 | 89 | 4.0 | 4.0 | 0.00 | 0.00 | 0.00 | 62 | 1013.8 |
| 20260508061529 | 57 | 181 | 3.0 | 4.0 | 0.00 | 0.00 | 0.00 | 62 | 1013.7 |
| 20260508061025 | 57 | 125 | 2.0 | 3.0 | 0.00 | 0.00 | 0.00 | 62 | 1013.7 |
| 20260508060522 | 57 | 51 | 3.0 | 4.0 | 0.00 | 0.00 | 0.00 | 62 | 1013.8 |
| 20260508060020 | 57 | 183 | 3.0 | 4.0 | 0.00 | 0.00 | 0.00 | 61 | 1013.8 |
| 20260508055515 | 58 | 206 | 5.0 | 6.0 | 0.00 | 0.00 | 0.00 | 61 | 1013.7 |
| 20260508055012 | 58 | 104 | 2.0 | 4.0 | 0.00 | 0.00 | 0.00 | 61 | 1013.7 |
| 20260508054509 | 58 | 95 | 2.0 | 3.0 | 0.00 | 0.00 | 0.00 | 60 | 1013.9 |
| 20260508054006 | 58 | 36 | 5.0 | 7.0 | 0.00 | 0.00 | 0.00 | 60 | 1013.8 |
| 20260508053502 | 58 | 54 | 1.0 | 2.0 | 0.00 | 0.00 | 0.00 | 60 | 1014.0 |
| 20260508053001 | 58 | 45 | 2.0 | 2.0 | 0.00 | 0.00 | 0.00 | 60 | 1014.0 |
| 20260508052458 | 58 | 200 | 2.0 | 2.0 | 0.00 | 0.00 | 0.00 | 59 | 1013.9 |
| 20260508051954 | 58 | 126 | 2.0 | 2.0 | 0.00 | 0.00 | 0.00 | 60 | 1014.1 |
| 20260508051449 | 58 | 198 | 2.0 | 2.0 | 0.00 | 0.00 | 0.00 | 60 | 1014.1 |
| 20260508050946 | 58 | 84 | 1.0 | 2.0 | 0.00 | 0.00 | 0.00 | 60 | 1014.0 |
| 20260508050442 | 58 | 180 | 4.0 | 4.0 | 0.00 | 0.00 | 0.00 | 60 | 1014.2 |
| 20260508045939 | 58 | 199 | 3.0 | 3.0 | 0.00 | 0.00 | 0.00 | 60 | 1014.2 |
| 20260508045436 | 58 | 43 | 1.0 | 2.0 | 0.00 | 0.00 | 0.00 | 60 | 1014.4 |
| 20260508044934 | 58 | 77 | 3.0 | 4.0 | 0.00 | 0.00 | 0.00 | 60 | 1014.1 |
| 20260508044431 | 58 | 55 | 2.0 | 2.0 | 0.00 | 0.00 | 0.00 | 61 | 1014.4 |
| 20260508043926 | 58 | 76 | 2.0 | 2.0 | 0.00 | 0.00 | 0.00 | 61 | 1014.4 |
| 20260508043424 | 58 | 53 | 1.0 | 2.0 | 0.00 | 0.00 | 0.00 | 61 | 1014.2 |
| 20260508042920 | 58 | 71 | 3.0 | 4.0 | 0.00 | 0.00 | 0.00 | 60 | 1014.5 |
| 20260508042418 | 58 | 187 | 2.0 | 3.0 | 0.00 | 0.00 | 0.00 | 60 | 1014.5 |
| 20260508041914 | 58 | 184 | 3.0 | 3.0 | 0.00 | 0.00 | 0.00 | 60 | 1014.6 |
| 20260508041411 | 59 | 45 | 1.0 | 2.0 | 0.00 | 0.00 | 0.00 | 60 | 1014.5 |
| 20260508040907 | 58 | 74 | 1.0 | 2.0 | 0.00 | 0.00 | 0.00 | 60 | 1014.7 |
| 20260508040405 | 58 | 169 | 3.0 | 3.0 | 0.00 | 0.00 | 0.00 | 60 | 1014.7 |
| 20260508035903 | 58 | 172 | 4.0 | 4.0 | 0.00 | 0.00 | 0.00 | 60 | 1014.6 |
| 20260508035359 | 59 | 193 | 2.0 | 2.0 | 0.00 | 0.00 | 0.00 | 60 | 1014.6 |
| 20260508034856 | 59 | 66 | 1.0 | 2.0 | 0.00 | 0.00 | 0.00 | 60 | 1015.0 |
| 20260508034354 | 59 | 64 | 1.0 | 2.0 | 0.00 | 0.00 | 0.00 | 60 | 1014.8 |
| 20260508033850 | 59 | 41 | 1.0 | 1.0 | 0.00 | 0.00 | 0.00 | 60 | 1014.9 |
| 20260508033348 | 59 | 106 | 2.0 | 3.0 | 0.00 | 0.00 | 0.00 | 59 | 1014.9 |
| 20260508032846 | 59 | 102 | 2.0 | 3.0 | 0.00 | 0.00 | 0.00 | 59 | 1014.9 |
| 20260508032343 | 59 | 196 | 2.0 | 4.0 | 0.00 | 0.00 | 0.00 | 58 | 1015.1 |
| 20260508031839 | 59 | 162 | 4.0 | 8.0 | 0.00 | 0.00 | 0.00 | 59 | 1015.0 |
| 20260508031336 | 59 | 67 | 1.0 | 2.0 | 0.00 | 0.00 | 0.00 | 59 | 1015.1 |
| 20260508030832 | 59 | 87 | 3.0 | 4.0 | 0.00 | 0.00 | 0.00 | 59 | 1015.0 |
| 20260508030330 | 60 | 62 | 1.0 | 1.0 | 0.00 | 0.00 | 0.00 | 58 | 1015.0 |
| 20260508025826 | 60 | 98 | 2.0 | 2.0 | 0.00 | 0.00 | 0.00 | 58 | 1015.2 |
| 20260508025324 | 60 | 176 | 2.0 | 2.0 | 0.00 | 0.00 | 0.00 | 58 | 1014.9 |
| 20260508024820 | 60 | 151 | 4.0 | 4.0 | 0.00 | 0.00 | 0.00 | 58 | 1015.0 |
| 20260508024317 | 60 | 158 | 2.0 | 3.0 | 0.00 | 0.00 | 0.00 | 58 | 1014.9 |
| 20260508023814 | 60 | 22 | 1.0 | 2.0 | 0.00 | 0.00 | 0.00 | 58 | 1014.9 |
| 20260508023310 | 60 | 31 | 0.0 | 1.0 | 0.00 | 0.00 | 0.00 | 58 | 1014.9 |
| 20260508022807 | 60 | 53 | 1.0 | 1.0 | 0.00 | 0.00 | 0.00 | 58 | 1015.0 |
| 20260508022306 | 60 | 55 | 2.0 | 3.0 | 0.00 | 0.00 | 0.00 | 58 | 1014.8 |
| 20260508021800 | 60 | 30 | 2.0 | 2.0 | 0.00 | 0.00 | 0.00 | 58 | 1014.8 |
| 20260508021256 | 60 | 85 | 1.0 | 1.0 | 0.00 | 0.00 | 0.00 | 58 | 1014.7 |
| 20260508020752 | 60 | 49 | 1.0 | 1.0 | 0.00 | 0.00 | 0.00 | 57 | 1014.5 |
| 20260508020251 | 61 | 42 | 0.0 | 0.0 | 0.00 | 0.00 | 0.00 | 57 | 1014.5 |
| 20260508015747 | 61 | 66 | 2.0 | 2.0 | 0.00 | 0.00 | 0.00 | 55 | 1014.4 |
| 20260508015244 | 61 | 292 | 1.0 | 2.0 | 0.00 | 0.00 | 0.00 | 55 | 1014.4 |
| 20260508014741 | 61 | 185 | 2.0 | 2.0 | 0.00 | 0.00 | 0.00 | 54 | 1014.2 |
| 20260508014238 | 62 | 14 | 1.0 | 2.0 | 0.00 | 0.00 | 0.00 | 54 | 1014.1 |
| 20260508013734 | 62 | 47 | 1.0 | 2.0 | 0.00 | 0.00 | 0.00 | 54 | 1014.1 |
| 20260508013230 | 62 | 55 | 0.0 | 1.0 | 0.00 | 0.00 | 0.00 | 54 | 1014.2 |
| 20260508012728 | 62 | 34 | 0.0 | 0.0 | 0.00 | 0.00 | 0.00 | 53 | 1014.1 |
| 20260508012225 | 63 | 289 | 2.0 | 3.0 | 0.00 | 0.00 | 0.00 | 52 | 1014.0 |
| 20260508011723 | 63 | 72 | 2.0 | 2.0 | 0.00 | 0.00 | 0.00 | 52 | 1014.0 |
| 20260508011220 | 64 | 210 | 2.0 | 2.0 | 0.00 | 0.00 | 0.00 | 51 | 1014.0 |
| 20260508010716 | 64 | 201 | 2.0 | 3.0 | 0.00 | 0.00 | 0.00 | 50 | 1013.9 |
| 20260508010215 | 64 | 193 | 2.0 | 3.0 | 0.00 | 0.00 | 0.00 | 49 | 1014.0 |
| 20260508005712 | 65 | 75 | 1.0 | 2.0 | 0.00 | 0.00 | 0.00 | 48 | 1013.8 |
| 20260508005208 | 65 | 134 | 2.0 | 3.0 | 0.00 | 0.00 | 0.00 | 48 | 1014.2 |
| 20260508004703 | 65 | 42 | 3.0 | 3.0 | 0.00 | 0.00 | 0.00 | 47 | 1014.0 |
| 20260508004200 | 65 | 25 | 1.0 | 2.0 | 0.00 | 0.00 | 0.00 | 46 | 1013.8 |
| 20260508003657 | 66 | 232 | 4.0 | 6.0 | 0.00 | 0.00 | 0.00 | 45 | 1014.1 |
| 20260508003154 | 66 | 143 | 4.0 | 6.0 | 0.00 | 0.00 | 0.00 | 44 | 1013.7 |
| 20260508002650 | 66 | 241 | 4.0 | 6.0 | 0.00 | 0.00 | 0.00 | 44 | 1013.9 |
| 20260508002149 | 67 | 182 | 1.0 | 2.0 | 0.00 | 0.00 | 0.00 | 44 | 1013.7 |
| 20260508001643 | 67 | 214 | 2.0 | 3.0 | 0.00 | 0.00 | 0.00 | 43 | 1014.0 |
| 20260508001140 | 67 | 299 | 1.0 | 2.0 | 0.00 | 0.00 | 0.00 | 44 | 1014.0 |
| 20260508000636 | 68 | 233 | 1.0 | 2.0 | 0.00 | 0.00 | 0.00 | 42 | 1013.9 |
| 20260508000133 | 68 | 232 | 4.0 | 6.0 | 0.00 | 0.00 | 0.00 | 42 | 1014.1 |
| 20260507235630 | 68 | 359 | 0.0 | 0.0 | 0.00 | 0.00 | 0.00 | 42 | 1013.9 |
| 20260507235128 | 68 | 29 | 1.0 | 2.0 | 0.00 | 0.00 | 0.00 | 43 | 1014.0 |
| 20260507234624 | 68 | 181 | 4.0 | 6.0 | 0.00 | 0.00 | 0.00 | 41 | 1013.8 |
| 20260507234120 | 68 | 359 | 1.0 | 2.0 | 0.00 | 0.00 | 0.00 | 42 | 1013.9 |
| 20260507233617 | 68 | 344 | 2.0 | 3.0 | 0.00 | 0.00 | 0.00 | 42 | 1013.9 |
| 20260507233116 | 68 | 236 | 4.0 | 4.0 | 0.00 | 0.00 | 0.00 | 42 | 1013.9 |
| 20260507232612 | 68 | 201 | 4.0 | 8.0 | 0.00 | 0.00 | 0.00 | 41 | 1013.9 |
| 20260507232110 | 69 | 141 | 7.0 | 9.0 | 0.00 | 0.00 | 0.00 | 40 | 1014.1 |
| 20260507231606 | 69 | 212 | 6.0 | 10.0 | 0.00 | 0.00 | 0.00 | 41 | 1014.0 |
| 20260507231103 | 69 | 329 | 2.0 | 3.0 | 0.00 | 0.00 | 0.00 | 41 | 1014.0 |
| 20260507230559 | 69 | 319 | 2.0 | 2.0 | 0.00 | 0.00 | 0.00 | 41 | 1014.2 |
| 20260507230056 | 69 | 318 | 1.0 | 2.0 | 0.00 | 0.00 | 0.00 | 42 | 1014.4 |
| 20260507225551 | 68 | 349 | 2.0 | 3.0 | 0.00 | 0.00 | 0.00 | 42 | 1014.2 |
| 20260507225048 | 69 | 129 | 2.0 | 3.0 | 0.00 | 0.00 | 0.00 | 41 | 1014.5 |
| 20260507224543 | 68 | 348 | 2.0 | 3.0 | 0.00 | 0.00 | 0.00 | 42 | 1014.5 |
| 20260507224040 | 69 | 207 | 4.0 | 4.0 | 0.00 | 0.00 | 0.00 | 41 | 1014.5 |
| 20260507223536 | 69 | 134 | 4.0 | 6.0 | 0.00 | 0.00 | 0.00 | 40 | 1014.5 |
| 20260507223033 | 69 | 225 | 5.0 | 7.0 | 0.00 | 0.00 | 0.00 | 40 | 1014.8 |
| 20260507222531 | 69 | 3 | 4.0 | 7.0 | 0.00 | 0.00 | 0.00 | 42 | 1014.7 |
| 20260507222027 | 70 | 216 | 5.0 | 7.0 | 0.00 | 0.00 | 0.00 | 38 | 1014.8 |
| 20260507221523 | 70 | 199 | 2.0 | 3.0 | 0.00 | 0.00 | 0.00 | 40 | 1014.7 |
| 20260507221020 | 71 | 193 | 5.0 | 7.0 | 0.00 | 0.00 | 0.00 | 40 | 1014.7 |
| 20260507220518 | 70 | 4 | 0.0 | 0.0 | 0.00 | 0.00 | 0.00 | 41 | 1014.8 |
| 20260507220015 | 69 | 184 | 5.0 | 8.0 | 0.00 | 0.00 | 0.00 | 41 | 1014.6 |
| 20260507215511 | 69 | 270 | 5.0 | 7.0 | 0.00 | 0.00 | 0.00 | 40 | 1014.8 |
| 20260507215009 | 70 | 123 | 1.0 | 2.0 | 0.00 | 0.00 | 0.00 | 41 | 1015.0 |
| 20260507214505 | 70 | 329 | 2.0 | 2.0 | 0.00 | 0.00 | 0.00 | 42 | 1015.0 |
| 20260507214001 | 69 | 174 | 3.0 | 3.0 | 0.00 | 0.00 | 0.00 | 42 | 1015.1 |
| 20260507213458 | 69 | 210 | 4.0 | 7.0 | 0.00 | 0.00 | 0.00 | 40 | 1015.1 |
| 20260507212955 | 68 | 238 | 5.0 | 7.0 | 0.00 | 0.00 | 0.00 | 41 | 1015.2 |
| 20260507212450 | 68 | 151 | 6.0 | 7.0 | 0.00 | 0.00 | 0.00 | 40 | 1015.0 |
| 20260507211948 | 70 | 215 | 7.0 | 9.0 | 0.00 | 0.00 | 0.00 | 39 | 1015.1 |
| 20260507211444 | 70 | 211 | 6.0 | 9.0 | 0.00 | 0.00 | 0.00 | 42 | 1015.2 |
| 20260507210941 | 69 | 322 | 1.0 | 2.0 | 0.00 | 0.00 | 0.00 | 43 | 1015.3 |
| 20260507210438 | 69 | 12 | 3.0 | 4.0 | 0.00 | 0.00 | 0.00 | 41 | 1015.4 |
| 20260507205935 | 69 | 238 | 4.0 | 6.0 | 0.00 | 0.00 | 0.00 | 42 | 1015.6 |
| 20260507205432 | 69 | 335 | 3.0 | 6.0 | 0.00 | 0.00 | 0.00 | 40 | 1015.3 |
| 20260507204928 | 69 | 309 | 2.0 | 2.0 | 0.00 | 0.00 | 0.00 | 41 | 1015.7 |
| 20260507204424 | 68 | 233 | 3.0 | 4.0 | 0.00 | 0.00 | 0.00 | 43 | 1015.8 |
| 20260507203922 | 68 | 290 | 4.0 | 6.0 | 0.00 | 0.00 | 0.00 | 42 | 1015.9 |
| 20260507203420 | 67 | 164 | 4.0 | 7.0 | 0.00 | 0.00 | 0.00 | 43 | 1015.9 |
| 20260507202916 | 67 | 204 | 11.0 | 14.0 | 0.00 | 0.00 | 0.00 | 43 | 1016.2 |
| 20260507202413 | 68 | 96 | 4.0 | 6.0 | 0.00 | 0.00 | 0.00 | 41 | 1016.4 |
| 20260507201908 | 69 | 172 | 7.0 | 10.0 | 0.00 | 0.00 | 0.00 | 41 | 1016.3 |
| 20260507201404 | 68 | 206 | 3.0 | 7.0 | 0.00 | 0.00 | 0.00 | 43 | 1016.1 |
| 20260507200901 | 69 | 185 | 3.0 | 8.0 | 0.00 | 0.00 | 0.00 | 42 | 1016.4 |
| 20260507200356 | 68 | 317 | 2.0 | 3.0 | 0.00 | 0.00 | 0.00 | 43 | 1016.3 |
| 20260507195852 | 68 | 220 | 2.0 | 3.0 | 0.00 | 0.00 | 0.00 | 42 | 1016.6 |
| 20260507195350 | 69 | 263 | 6.0 | 9.0 | 0.00 | 0.00 | 0.00 | 41 | 1016.7 |
| 20260507194847 | 67 | 2 | 2.0 | 3.0 | 0.00 | 0.00 | 0.00 | 42 | 1016.7 |
| 20260507194344 | 68 | 346 | 6.0 | 9.0 | 0.00 | 0.00 | 0.00 | 41 | 1017.0 |
| 20260507193840 | 68 | 234 | 3.0 | 4.0 | 0.00 | 0.00 | 0.00 | 41 | 1016.8 |
| 20260507193337 | 69 | 235 | 2.0 | 2.0 | 0.00 | 0.00 | 0.00 | 42 | 1016.9 |
| 20260507192833 | 68 | 1 | 2.0 | 2.0 | 0.00 | 0.00 | 0.00 | 43 | 1016.9 |
| 20260507192330 | 68 | 198 | 3.0 | 4.0 | 0.00 | 0.00 | 0.00 | 42 | 1016.9 |
| 20260507191826 | 67 | 189 | 7.0 | 10.0 | 0.00 | 0.00 | 0.00 | 41 | 1017.0 |
| 20260507191322 | 66 | 306 | 6.0 | 8.0 | 0.00 | 0.00 | 0.00 | 42 | 1017.0 |
| 20260507190820 | 68 | 222 | 2.0 | 2.0 | 0.00 | 0.00 | 0.00 | 41 | 1016.9 |
| 20260507190318 | 67 | 279 | 2.0 | 2.0 | 0.00 | 0.00 | 0.00 | 43 | 1017.0 |
| 20260507185817 | 68 | 72 | 2.0 | 4.0 | 0.00 | 0.00 | 0.00 | 40 | 1017.0 |
| 20260507185313 | 67 | 171 | 2.0 | 3.0 | 0.00 | 0.00 | 0.00 | 41 | 1017.3 |
| 20260507184810 | 67 | 213 | 3.0 | 4.0 | 0.00 | 0.00 | 0.00 | 42 | 1017.2 |
| 20260507184308 | 68 | 310 | 1.0 | 1.0 | 0.00 | 0.00 | 0.00 | 43 | 1017.3 |
| 20260507183805 | 67 | 317 | 3.0 | 3.0 | 0.00 | 0.00 | 0.00 | 44 | 1017.3 |
| 20260507183302 | 67 | 268 | 4.0 | 6.0 | 0.00 | 0.00 | 0.00 | 42 | 1017.4 |
| 20260507182759 | 67 | 248 | 3.0 | 4.0 | 0.00 | 0.00 | 0.00 | 40 | 1017.4 |
| 20260507182254 | 67 | 344 | 2.0 | 3.0 | 0.00 | 0.00 | 0.00 | 43 | 1017.5 |
| 20260507181751 | 66 | 272 | 0.0 | 1.0 | 0.00 | 0.00 | 0.00 | 44 | 1017.3 |